AFL1430 UNBG-UNBB

Flight info

Callsign AFL1430
Flight time 0h 31m
Altitude 22000
Route KUDEB B206 INBOK
Aircraft A320/M-SDE3FGHIRWY/LB1

Departure

Time 2026-04-22 09:43
Airport Gorno-Altaysk Airport (UNBG)

Arrival

Time 2026-04-22 10:14
Airport Barnaul Gherman Titov International Airport (UNBB)
Time Latitude Longitude Altitude Speed Heading
2026-04-22 09:37 51.96888 85.84020 970 ft 0 kts 295°
2026-04-22 09:39 51.96892 85.84000 971 ft 4 kts 283°
2026-04-22 09:39 51.96885 85.83930 972 ft 9 kts 239°
2026-04-22 09:39 51.96822 85.83865 968 ft 13 kts 213°
2026-04-22 09:39 51.96794 85.83715 970 ft 17 kts 266°
2026-04-22 09:40 51.96766 85.83535 970 ft 13 kts 205°
2026-04-22 09:40 51.96666 85.83458 969 ft 18 kts 205°
2026-04-22 09:40 51.96531 85.83355 963 ft 25 kts 206°
2026-04-22 09:40 51.96366 85.83230 964 ft 27 kts 205°
2026-04-22 09:41 51.96192 85.83098 973 ft 28 kts 206°
2026-04-22 09:41 51.96043 85.83007 973 ft 13 kts 174°
2026-04-22 09:41 51.95982 85.82986 970 ft 2 kts 267°
2026-04-22 09:41 51.95998 85.82966 975 ft 6 kts 344°
2026-04-22 09:42 51.96059 85.82995 975 ft 13 kts 27°
2026-04-22 09:42 51.96271 85.83157 968 ft 68 kts 25°
2026-04-22 09:42 51.96905 85.83643 973 ft 130 kts 25°
2026-04-22 09:42 51.97845 85.84348 1298 ft 152 kts 25°
2026-04-22 09:43 51.98795 85.85067 2131 ft 150 kts 23°
2026-04-22 09:43 51.99775 85.85809 2627 ft 165 kts 23°
2026-04-22 09:43 52.00887 85.86652 3020 ft 188 kts 23°
2026-04-22 09:43 52.02145 85.87611 3431 ft 213 kts 24°
2026-04-22 09:44 52.03564 85.88698 3932 ft 238 kts 24°
2026-04-22 09:44 52.05219 85.89416 4523 ft 257 kts 355°
2026-04-22 09:44 52.06897 85.88424 5300 ft 263 kts 319°
2026-04-22 09:44 52.07943 85.86021 6148 ft 266 kts 290°
2026-04-22 09:45 52.08615 85.83206 7050 ft 268 kts 289°
2026-04-22 09:45 52.09488 85.80503 7964 ft 275 kts 306°
2026-04-22 09:45 52.10943 85.78441 8897 ft 281 kts 322°
2026-04-22 09:45 52.12562 85.76634 9817 ft 283 kts 322°
2026-04-22 09:46 52.14231 85.74778 10302 ft 301 kts 322°
2026-04-22 09:46 52.16025 85.72776 10594 ft 322 kts 322°
2026-04-22 09:46 52.17923 85.70661 11249 ft 330 kts 322°
2026-04-22 09:46 52.19829 85.68542 12022 ft 333 kts 322°
2026-04-22 09:47 52.21750 85.66402 12807 ft 336 kts 323°
2026-04-22 09:47 52.23690 85.64239 13607 ft 339 kts 323°
2026-04-22 09:47 52.25641 85.62057 14283 ft 341 kts 323°
2026-04-22 09:47 52.27604 85.59862 14978 ft 343 kts 323°
2026-04-22 09:48 52.29580 85.57647 15675 ft 345 kts 322°
2026-04-22 09:48 52.31567 85.55417 16382 ft 347 kts 322°
2026-04-22 09:48 52.33566 85.53171 17066 ft 350 kts 322°
2026-04-22 09:48 52.35576 85.50908 17756 ft 352 kts 322°
2026-04-22 09:49 52.37601 85.48625 18378 ft 354 kts 322°
2026-04-22 09:49 52.39636 85.46326 18949 ft 357 kts 322°
2026-04-22 09:49 52.41683 85.44007 19513 ft 359 kts 322°
2026-04-22 09:49 52.43738 85.41675 20070 ft 361 kts 322°
2026-04-22 09:50 52.45810 85.39320 20611 ft 364 kts 322°
2026-04-22 09:50 52.47872 85.36896 21142 ft 365 kts 320°
2026-04-22 09:50 52.49884 85.34329 21656 ft 368 kts 318°
2026-04-22 09:50 52.51872 85.31674 21828 ft 367 kts 317°
2026-04-22 09:51 52.53818 85.29024 21852 ft 361 kts 317°
2026-04-22 09:51 52.55743 85.26394 21856 ft 359 kts 317°
2026-04-22 09:51 52.57665 85.23780 21855 ft 359 kts 317°
2026-04-22 09:51 52.59664 85.21077 21860 ft 376 kts 317°
2026-04-22 09:52 52.61728 85.18300 21861 ft 391 kts 318°
2026-04-22 09:52 52.63877 85.15420 21860 ft 406 kts 318°
2026-04-22 09:52 52.66103 85.12448 21862 ft 418 kts 318°
2026-04-22 09:52 52.68382 85.09401 21862 ft 429 kts 318°
2026-04-22 09:53 52.70721 85.06267 21863 ft 439 kts 318°
2026-04-22 09:53 52.73101 85.03070 21869 ft 445 kts 318°
2026-04-22 09:53 52.75504 84.99840 21865 ft 446 kts 318°
2026-04-22 09:53 52.77885 84.96636 21860 ft 437 kts 318°
2026-04-22 09:54 52.80246 84.93454 21864 ft 438 kts 318°
2026-04-22 09:54 52.82600 84.90273 21873 ft 438 kts 318°
2026-04-22 09:54 52.84965 84.87077 21868 ft 438 kts 318°
2026-04-22 09:54 52.87313 84.83899 21868 ft 438 kts 318°
2026-04-22 09:55 52.89666 84.80698 21866 ft 438 kts 318°
2026-04-22 09:55 52.92018 84.77498 21870 ft 438 kts 318°
2026-04-22 09:55 52.94370 84.74289 21872 ft 438 kts 318°
2026-04-22 09:55 52.96722 84.71078 21876 ft 438 kts 318°
2026-04-22 09:56 52.99070 84.67872 21875 ft 438 kts 318°
2026-04-22 09:56 53.01420 84.64658 21888 ft 438 kts 318°
2026-04-22 09:56 53.03768 84.61443 21884 ft 437 kts 318°
2026-04-22 09:56 53.06117 84.58217 21885 ft 437 kts 318°
2026-04-22 09:57 53.08456 84.55003 21878 ft 437 kts 318°
2026-04-22 09:57 53.10799 84.51777 21889 ft 437 kts 318°
2026-04-22 09:57 53.13141 84.48550 21890 ft 436 kts 318°
2026-04-22 09:57 53.15479 84.45323 21880 ft 437 kts 318°
2026-04-22 09:58 53.17817 84.42093 21886 ft 437 kts 318°
2026-04-22 09:58 53.20182 84.38829 21891 ft 437 kts 318°
2026-04-22 09:58 53.22495 84.35634 21894 ft 436 kts 318°
2026-04-22 09:58 53.24855 84.32361 21882 ft 436 kts 317°
2026-04-22 09:59 53.27187 84.29107 21893 ft 436 kts 316°
2026-04-22 09:59 53.29281 84.25473 21684 ft 435 kts 309°
2026-04-22 09:59 53.31264 84.21662 20692 ft 431 kts 309°
2026-04-22 09:59 53.33156 84.18009 20299 ft 400 kts 309°
2026-04-22 10:00 53.34907 84.14624 20120 ft 369 kts 308°
2026-04-22 10:00 53.36538 84.11471 19666 ft 350 kts 308°
2026-04-22 10:00 53.38108 84.08425 18918 ft 342 kts 308°
2026-04-22 10:00 53.39643 84.05434 18224 ft 334 kts 308°
2026-04-22 10:01 53.41126 84.02549 17769 ft 319 kts 308°
2026-04-22 10:01 53.42542 83.99802 17374 ft 304 kts 308°
2026-04-22 10:01 53.43891 83.97175 17003 ft 291 kts 307°
2026-04-22 10:01 53.45189 83.94640 16658 ft 285 kts 307°
2026-04-22 10:02 53.46479 83.92112 16298 ft 285 kts 307°
2026-04-22 10:02 53.47775 83.89572 15950 ft 286 kts 307°
2026-04-22 10:02 53.49069 83.87033 15598 ft 286 kts 307°
2026-04-22 10:02 53.50363 83.84493 15248 ft 286 kts 307°
2026-04-22 10:03 53.51619 83.81829 14871 ft 296 kts 300°
2026-04-22 10:03 53.52537 83.78720 14481 ft 298 kts 287°
2026-04-22 10:03 53.53003 83.75337 14079 ft 297 kts 275°
2026-04-22 10:03 53.53128 83.71880 13674 ft 296 kts 272°
2026-04-22 10:04 53.53205 83.69547 13376 ft 296 kts 272°
2026-04-22 10:04 53.53323 83.66093 12964 ft 295 kts 272°
2026-04-22 10:04 53.53443 83.62650 12552 ft 295 kts 272°
2026-04-22 10:04 53.53562 83.59216 12156 ft 294 kts 272°
2026-04-22 10:05 53.53681 83.55794 11751 ft 293 kts 272°
2026-04-22 10:05 53.53797 83.52390 11348 ft 292 kts 272°
2026-04-22 10:05 53.53910 83.48985 10943 ft 291 kts 272°
2026-04-22 10:05 53.54022 83.45590 10534 ft 291 kts 272°
2026-04-22 10:06 53.54133 83.42200 10131 ft 290 kts 272°
2026-04-22 10:06 53.54242 83.38866 9966 ft 281 kts 272°
2026-04-22 10:06 53.54326 83.35622 9755 ft 274 kts 267°
2026-04-22 10:06 53.53948 83.32506 9344 ft 276 kts 247°
2026-04-22 10:07 53.52887 83.29838 8976 ft 276 kts 227°
2026-04-22 10:07 53.51317 83.27995 8369 ft 276 kts 206°
2026-04-22 10:07 53.49526 83.26822 7674 ft 277 kts 203°
2026-04-22 10:07 53.47712 83.25660 7043 ft 274 kts 203°
2026-04-22 10:08 53.45949 83.24531 6460 ft 270 kts 203°
2026-04-22 10:08 53.44207 83.23410 5874 ft 267 kts 203°
2026-04-22 10:08 53.42501 83.22309 5386 ft 265 kts 203°
2026-04-22 10:08 53.40758 83.21186 4868 ft 264 kts 202°
2026-04-22 10:09 53.38980 83.20579 4527 ft 255 kts 183°
2026-04-22 10:09 53.37295 83.20904 4462 ft 236 kts 166°
2026-04-22 10:09 53.35777 83.21881 4398 ft 233 kts 159°
2026-04-22 10:09 53.34282 83.22930 4338 ft 232 kts 160°
2026-04-22 10:10 53.32795 83.23973 4238 ft 231 kts 159°
2026-04-22 10:10 53.31326 83.25030 4130 ft 227 kts 154°
2026-04-22 10:10 53.30252 83.26817 4004 ft 218 kts 112°
2026-04-22 10:10 53.30133 83.29281 3749 ft 217 kts 72°
2026-04-22 10:11 53.30689 83.31598 3408 ft 215 kts 66°
2026-04-22 10:11 53.31273 83.33882 3085 ft 211 kts 66°
2026-04-22 10:11 53.31835 83.36087 2797 ft 201 kts 66°
2026-04-22 10:11 53.32369 83.38195 2494 ft 193 kts 66°
2026-04-22 10:12 53.32869 83.40176 2232 ft 176 kts 66°
2026-04-22 10:12 53.33309 83.41938 2060 ft 155 kts 67°
2026-04-22 10:12 53.33709 83.43533 1858 ft 144 kts 66°
2026-04-22 10:12 53.34091 83.45053 1699 ft 140 kts 66°
2026-04-22 10:13 53.34465 83.46541 1529 ft 138 kts 66°
2026-04-22 10:13 53.34833 83.48007 1368 ft 136 kts 66°
2026-04-22 10:13 53.35198 83.49464 1204 ft 137 kts 67°
2026-04-22 10:13 53.35556 83.50937 1039 ft 138 kts 68°
2026-04-22 10:14 53.35925 83.52391 874 ft 134 kts 67°
2026-04-22 10:14 53.36287 83.53769 835 ft 114 kts 76°
2026-04-22 10:14 53.36513 83.54744 833 ft 65 kts 67°
2026-04-22 10:14 53.36647 83.55283 833 ft 46 kts 68°
2026-04-22 10:15 53.36752 83.55701 839 ft 24 kts 66°
2026-04-22 10:15 53.36787 83.55927 836 ft 11 kts 112°
2026-04-22 10:15 53.36706 83.56000 838 ft 16 kts 161°
2026-04-22 10:15 53.36616 83.55880 836 ft 22 kts 250°
2026-04-22 10:16 53.36550 83.55617 837 ft 26 kts 247°
2026-04-22 10:16 53.36472 83.55307 841 ft 31 kts 248°
2026-04-22 10:16 53.36393 83.54991 837 ft 25 kts 249°
2026-04-22 10:16 53.36331 83.54746 835 ft 17 kts 244°
2026-04-22 10:17 53.36262 83.54742 834 ft 12 kts 155°
2026-04-22 10:17 53.36196 83.54689 837 ft 12 kts 242°
2026-04-22 10:17 53.36190 83.54665 838 ft 0 kts 245°